STARLINK-3113 (49735 NORAD) Tracking and Keplerian Element Data

This shows tracking and keplerian element data for the satellite.

Feedback or suggestion? Click here.




ElementValue
Catalog49735
NameSTARLINK-3113
Epoch Orbit130
Epoch Day140.58334491
Epoch Year2022
RAAN275.0605
Inclination53.2146
Eccentricity0.0002268
Argument of Perigee31.1437
Mean Anonmoly250.3505
Mean Motion15.08877547
Decay Rate-0.00055043
L11 49735U 21115M 22140.58334491 -.00055043 00000+0 -34632-2 0 9992
L22 49735 53.2146 275.0605 0002268 31.1437 250.3505 15.08877547 1309

Live tracking and technical data element details for STARLINK-3113 (NORAD 49735). STARLINK-3113 can be tracked NOW for your location showing map with azimuth and elevation plus other details from your city location.

Track the satellite on the map from your city or location and see movement details for azimuth, elevation, latitude, longitude, range, height, and movement on the map or in text.







IsCatalogInMostPopularTable: catalog: 49735, numindb: 21
Update: records affected: 1



GetName: 49735 STARLINK-3113

Hit Count: updated at: Mon, 23 May 2022 20:00:37 GMT